Aérodrome :
LOGIN :

S'inscrire | Disclaimer

   EN    FR    IT 

 










Légende :    VFR   VFR Marginal   IFR   IFR Intensif   IFR Très Intensif
Visi : 
Plafond : 
>= 8 km
>= 3000ft
5 à 8 km
1000 à 3000 ft
1500m à 5 km
500 à 1000 ft
800 à 1500m
200 à 500 ft
< 800m
< 200 ft
Symboles :   Orages  Brouillard  Fortes neiges  Fortes précipitations  Vent > 20 kt
SIGMETs :   Divers  Orages  Givrage  Turbulence  Onde Orograph.  Cendres Volcan.







- Altitude de l'aérodrome : 65 ft
- Code IATA : PMO


LICJ - Palermo Punta Raisi

DERNIER METAR :
  • 181050Z 29005KT 9999 FEW020 22/15 Q1021

METARs EXPIRÉS :
  • 181020Z 34006KT 270V360 9999 FEW010 21/14 Q1021
  • 180950Z 32004KT 9999 FEW010 21/15 Q1021
  • 180920Z VRB04KT 9999 FEW010 21/15 Q1021
  • 180850Z VRB04KT CAVOK 21/15 Q1021
  • 180820Z 36006KT CAVOK 20/15 Q1021

TAF TAF LICJ
Valide du 18 à 06h jusqu'au 19 à 06h UTC


180500Z 1806/1906 VRB05KT CAVOK
BECMG 1808/1810 03012KT
BECMG 1816/1818 VRB05KT
Pas de NOTAMs connus pour ce terrain.



MET'MAP, la Météo Aéronautique d'un coup d'oeil ! - Copyright ORBIFLY Décembre 2007 - Disclaimer

ORBIFLY MET'MAP TEAM :

Programmation & Développement : Alexandra Zaïnal
Conception & Développement : Baudouin d'Aumeries
Co-Programmation & Développement : Marc-Olivier Méhu
Soutien technique & logistique : Manuel Goepfert

Contact : metmap@orbifly.com




SOURCES & CREDITS :

   NOAA